Wind_Speed
25 24 24 23 22 22 21 21 21 21 19 19 19 19 19 18 18 17 17 18 18 18 19 19 20 21 23 24 25 26 27 28 28 28 29 29 30 30 31 31 32 32 32 33
25 24 24 23 22 22 21 21 21 20 19 18 19 19 19 19 18 18 18 18 19 19 20 22 23 24 25 26 26 27 28 28 28 29 29 29 29 29 30 30 31 31 31 32
26 25 24 23 22 22 22 22 21 20 19 19 19 19 19 19 19 19 20 20 21 21 22 23 24 25 26 26 27 28 28 28 28 28 27 27 27 27 28 28 29 30 32 33
26 26 25 24 24 23 23 22 21 21 20 19 19 20 20 20 20 21 21 22 22 23 24 25 25 26 27 28 28 29 29 28 27 26 25 25 25 26 27 29 30 31 32 34
27 26 25 24 24 24 23 22 22 21 21 20 20 21 20 20 21 22 22 23 24 24 25 26 26 27 28 29 29 29 29 27 26 25 25 26 27 28 29 31 32 33 34 36
28 27 25 25 24 23 23 23 23 22 22 21 20 22 21 20 22 23 24 24 25 25 26 26 27 28 29 30 30 29 28 27 26 26 27 28 29 30 32 33 35 36 38 40
29 27 26 26 25 24 23 23 24 23 23 22 22 22 22 21 23 24 25 25 25 26 27 27 28 29 30 30 29 28 28 28 28 29 30 31 32 34 35 36 38 40 42 44
29 27 26 25 25 25 24 24 24 25 24 23 23 23 22 22 23 25 26 26 26 27 28 29 30 31 31 30 30 29 29 30 31 32 33 34 35 37 38 40 42 43 46 48
28 27 27 26 26 25 25 24 25 26 26 25 24 23 23 23 24 26 27 27 28 29 30 31 32 32 32 32 31 31 31 32 33 35 36 37 39 40 42 44 46 48 50 52
28 28 27 27 26 26 25 25 25 27 27 27 25 23 23 24 25 27 28 29 30 30 32 33 33 34 34 33 33 33 34 35 36 37 39 40 42 44 46 48 50 52 55 57
28 28 27 27 26 26 26 26 26 28 28 28 28 25 24 26 27 29 30 31 31 32 34 35 35 36 35 35 35 36 37 38 39 40 42 44 46 47 50 52 54 56 59 61
28 29 28 28 27 27 27 27 28 29 30 30 30 28 26 28 29 31 32 33 33 34 35 37 37 37 37 37 37 38 39 40 42 44 45 47 49 51 53 56 58 61 63 66
30 30 29 29 29 28 29 29 30 31 32 32 31 29 28 30 32 34 34 35 36 36 37 38 38 38 38 39 39 40 42 43 45 47 48 50 52 55 57 59 62 65 67 70
33 33 32 31 31 31 31 31 31 33 33 34 32 30 30 33 36 36 37 38 38 39 39 39 39 40 40 40 42 43 44 46 48 49 51 53 56 58 60 63 66 68 71 73
35 35 34 33 33 34 33 33 32 33 34 36 34 33 32 36 38 38 39 39 40 41 41 40 41 41 42 43 44 45 47 48 50 52 54 57 59 62 64 67 69 72 74 76
37 37 36 36 35 36 36 35 34 34 35 36 37 36 35 38 39 40 41 42 42 42 42 42 42 43 43 45 46 47 49 51 53 55 57 60 62 64 67 70 73 75 77 78
39 38 39 39 37 39 39 34 35 37 36 37 39 38 39 39 40 42 43 43 42 42 42 43 43 44 45 46 48 50 52 54 56 58 60 63 65 67 70 73 75 77 78 80
40 39 40 41 40 43 39 36 35 37 37 38 40 40 41 42 43 43 42 42 42 43 43 44 45 46 47 48 50 52 54 56 58 60 63 65 68 70 73 75 77 79 80 81
41 41 42 43 44 44 41 38 37 39 39 38 40 41 42 42 43 42 42 42 42 43 43 44 45 47 48 50 51 53 56 58 60 62 65 68 70 73 75 77 78 80 81 82
41 41 43 44 45 46 43 40 39 41 41 38 40 40 41 41 42 42 42 42 42 43 43 45 46 48 49 51 53 55 57 60 62 65 67 70 72 75 77 78 80 81 82 83
41 42 43 44 46 46 44 42 41 41 41 40 40 40 41 42 42 41 41 41 42 43 44 46 47 49 51 53 55 57 59 62 65 67 69 72 74 76 78 79 80 82 82 82
41 42 43 44 46 45 42 43 42 43 43 42 42 41 41 41 41 41 41 42 43 44 45 47 48 50 53 55 57 59 62 64 67 69 71 73 75 77 78 80 81 81 81 79
42 43 43 44 44 43 43 44 44 44 44 43 42 42 42 41 41 41 42 43 44 45 46 48 50 52 54 57 59 61 64 67 69 71 73 75 76 77 79 80 80 79 77 75
42 42 43 43 42 42 43 43 43 44 44 44 43 43 43 43 42 42 43 44 45 46 47 49 51 53 55 58 61 64 67 69 71 72 74 75 77 78 79 79 78 76 73 70
42 42 43 42 41 42 43 44 44 45 44 44 44 43 43 42 42 43 44 45 46 47 49 51 53 55 57 60 63 66 69 71 72 73 75 76 78 79 78 77 75 72 68 65
41 42 42 43 43 44 44 45 45 45 44 44 43 43 43 43 43 44 45 46 47 49 51 53 55 57 60 63 65 68 70 72 73 75 76 78 78 78 77 75 71 66 63 59
Wind_Direction
246 250 254 258 262 265 269 272 274 275 276 275 274 273 274 273 273 274 277 280 284 286 288 290 292 293 293 292 292 292 291 291 290 289 288 287 286 285 285 284 283 283 283 283
244 247 253 256 259 264 268 270 271 273 273 273 272 271 272 272 274 277 280 282 285 287 289 292 293 293 293 292 292 292 292 292 292 291 289 287 286 285 285 285 284 284 284 284
242 246 250 254 258 263 267 268 268 270 270 269 269 269 270 272 275 277 280 283 286 288 290 292 293 293 293 294 294 294 294 294 293 292 290 289 287 287 287 286 286 286 286 286
241 244 249 255 258 262 265 265 266 268 268 267 268 267 269 272 275 278 280 283 286 288 291 293 293 293 293 294 295 295 295 294 293 292 290 289 288 289 289 289 289 289 288 289
242 246 250 254 257 260 262 263 264 266 266 267 267 267 267 271 274 277 279 283 285 288 291 292 292 292 293 294 294 294 294 292 291 290 289 289 289 289 290 291 291 291 291 291
244 247 250 254 256 258 260 261 263 264 266 266 266 268 270 271 274 276 279 282 285 288 291 291 291 292 292 293 293 293 291 289 288 288 288 288 288 289 290 290 291 291 292 293
244 246 250 252 254 256 257 260 263 265 266 267 267 268 271 273 273 276 279 283 286 289 290 291 291 292 292 291 291 290 287 286 286 287 287 287 288 290 290 291 292 293 294 295
243 246 248 251 253 255 256 259 264 268 269 268 268 269 272 273 275 277 280 283 286 288 290 290 292 292 291 290 290 288 286 285 285 286 286 288 289 290 291 292 293 294 295 295
241 244 246 250 252 255 258 260 264 268 269 270 270 271 273 275 277 279 281 284 286 288 290 291 291 291 290 289 288 287 285 286 286 286 287 288 290 291 292 293 293 294 295 296
240 244 246 249 252 255 258 261 263 267 270 272 272 273 275 275 277 279 282 284 286 289 291 292 291 290 289 288 287 286 286 287 288 288 288 290 291 292 293 294 295 296 297 298
242 245 246 249 252 255 258 261 263 266 270 274 275 275 277 278 279 279 281 283 286 289 291 292 291 289 288 287 286 286 286 287 289 289 290 292 293 294 295 296 297 298 299 300
243 246 248 250 252 256 259 262 265 268 271 274 277 279 280 280 280 280 282 284 287 290 291 292 290 289 287 287 287 286 287 289 290 291 293 294 295 297 297 298 299 300 301 302
245 248 250 252 254 257 260 263 266 269 271 274 277 282 282 281 281 282 284 286 288 290 291 291 290 288 287 287 287 288 289 291 292 293 295 296 297 298 300 301 302 303 303 303
246 249 252 255 258 259 261 263 265 269 272 275 277 280 281 281 282 284 286 287 289 290 291 290 289 289 288 288 289 290 291 292 294 295 297 298 299 300 302 303 304 304 304 305
248 251 253 255 259 262 263 264 266 269 273 275 277 278 280 280 283 285 287 288 289 290 290 289 289 289 288 289 290 291 292 294 295 297 298 299 301 302 303 304 305 305 305 306
250 253 255 258 260 263 264 266 269 270 272 275 276 279 280 280 283 285 286 288 288 288 288 288 288 289 289 289 291 292 294 295 296 298 299 300 302 303 304 305 305 306 306 307
250 254 257 259 261 264 266 270 271 272 273 274 277 280 280 281 283 285 286 287 288 287 287 287 288 288 289 290 291 293 294 296 297 299 300 301 302 304 305 306 306 307 307 307
250 254 257 261 263 264 270 270 272 274 274 276 278 280 280 282 284 285 285 286 286 286 286 287 287 288 289 290 292 293 295 296 298 299 301 302 304 305 306 306 307 307 308 308
252 255 258 261 265 267 269 273 275 274 275 277 278 279 281 283 285 285 285 284 284 285 286 286 287 288 289 291 292 294 296 297 299 300 302 304 305 306 306 307 308 308 309 309
253 256 259 262 266 269 272 273 274 276 278 279 279 281 283 284 285 285 284 284 284 285 285 286 287 288 290 292 294 295 297 298 300 302 303 305 306 307 307 308 309 309 310 311
253 256 259 263 267 270 275 278 278 279 281 281 282 283 284 285 285 285 284 283 284 285 286 287 288 289 291 293 295 296 298 300 301 303 305 306 307 307 308 309 310 311 311 312
255 257 260 263 267 272 276 277 278 280 282 283 284 284 285 285 284 283 283 283 284 285 286 288 289 291 293 295 296 298 300 301 303 305 306 307 307 308 309 310 311 312 312 312
258 260 262 264 268 272 274 276 278 280 282 283 284 285 285 285 283 282 282 283 285 286 287 289 290 292 294 296 298 300 301 303 304 306 307 307 308 309 310 312 312 313 312 312
260 261 264 266 269 271 273 275 278 280 281 282 283 284 284 283 283 282 283 285 286 287 288 290 292 294 296 298 300 301 302 304 305 306 307 308 309 310 312 313 313 313 312 311
261 263 265 267 269 271 273 276 278 279 280 281 282 283 283 283 283 283 284 285 286 288 290 292 294 296 297 299 301 302 304 305 306 307 308 309 310 311 312 313 313 313 312 311
263 265 266 267 269 271 273 275 277 278 279 280 281 282 282 283 283 284 284 286 288 290 292 294 296 297 299 301 302 304 305 306 307 308 309 310 311 312 313 313 313 312 311 310
Height
5825 5828 5828 5829 5830 5830 5830 5829 5829 5828 5828 5828 5827 5826 5826 5825 5825 5824 5824 5823 5823 5822 5822 5821 5820 5819 5817 5815 5813 5812 5810 5808 5806 5804 5802 5800 5798 5796 5794 5792 5790 5789 5787 5785
5821 5822 5822 5823 5824 5824 5824 5824 5824 5824 5823 5823 5822 5821 5821 5820 5820 5820 5819 5819 5818 5818 5817 5816 5815 5813 5811 5809 5807 5805 5803 5801 5799 5797 5795 5793 5791 5789 5787 5785 5783 5781 5779 5777
5814 5816 5816 5818 5818 5819 5819 5819 5819 5819 5818 5818 5818 5817 5816 5816 5815 5815 5814 5814 5813 5812 5812 5810 5809 5807 5805 5803 5801 5799 5797 5795 5792 5790 5788 5786 5783 5781 5780 5778 5775 5773 5771 5769
5807 5810 5811 5812 5813 5813 5814 5814 5814 5813 5813 5814 5814 5813 5812 5811 5810 5810 5809 5808 5808 5807 5806 5804 5803 5801 5799 5797 5794 5792 5790 5788 5785 5783 5781 5779 5777 5775 5773 5770 5768 5765 5763 5760
5802 5803 5805 5806 5807 5807 5808 5808 5809 5808 5808 5809 5809 5808 5809 5807 5806 5805 5804 5803 5802 5801 5800 5798 5796 5794 5792 5790 5788 5786 5783 5781 5779 5777 5775 5773 5770 5768 5765 5763 5760 5757 5755 5752
5795 5797 5798 5800 5801 5802 5802 5803 5803 5803 5803 5804 5804 5803 5803 5802 5801 5799 5798 5797 5796 5795 5794 5792 5790 5788 5786 5784 5781 5779 5777 5775 5773 5771 5768 5766 5763 5761 5758 5755 5752 5749 5746 5742
5788 5790 5791 5793 5794 5795 5796 5797 5798 5798 5798 5799 5798 5798 5798 5797 5795 5794 5793 5791 5790 5789 5787 5785 5783 5781 5779 5777 5774 5772 5770 5768 5766 5764 5761 5759 5756 5753 5750 5747 5743 5740 5736 5732
5781 5784 5785 5787 5788 5789 5790 5791 5793 5792 5792 5792 5792 5792 5793 5791 5789 5788 5787 5785 5784 5782 5781 5778 5776 5774 5772 5769 5767 5765 5763 5761 5758 5756 5753 5751 5748 5744 5741 5737 5734 5730 5726 5721
5774 5777 5779 5780 5781 5783 5784 5785 5785 5785 5785 5785 5786 5787 5786 5785 5783 5781 5780 5779 5777 5775 5773 5771 5769 5766 5764 5762 5759 5757 5755 5753 5750 5747 5744 5741 5738 5735 5731 5727 5723 5719 5714 5709
5767 5770 5772 5773 5775 5776 5777 5778 5779 5778 5778 5778 5780 5780 5780 5778 5777 5775 5773 5771 5770 5768 5766 5763 5761 5758 5756 5754 5751 5749 5747 5744 5741 5738 5735 5731 5727 5724 5720 5715 5710 5705 5700 5695
5760 5763 5765 5767 5768 5770 5771 5772 5771 5771 5771 5772 5772 5776 5773 5771 5769 5768 5766 5764 5762 5760 5758 5755 5752 5750 5747 5745 5743 5740 5737 5734 5731 5728 5724 5720 5716 5712 5707 5702 5697 5691 5685 5679
5753 5755 5757 5760 5761 5762 5763 5764 5765 5765 5764 5764 5764 5769 5765 5763 5761 5759 5758 5756 5754 5752 5749 5746 5743 5741 5738 5735 5733 5730 5727 5724 5720 5717 5712 5708 5704 5699 5693 5688 5682 5676 5669 5662
5745 5748 5750 5752 5756 5756 5756 5757 5757 5757 5756 5756 5756 5760 5756 5754 5752 5750 5749 5747 5745 5743 5740 5737 5734 5731 5728 5726 5723 5720 5717 5713 5709 5705 5700 5695 5690 5685 5679 5673 5666 5659 5652 5645
5738 5740 5744 5746 5746 5747 5748 5749 5749 5748 5748 5748 5749 5750 5748 5745 5742 5741 5740 5738 5735 5733 5730 5727 5724 5721 5718 5715 5712 5709 5705 5701 5697 5692 5687 5682 5676 5671 5664 5657 5650 5643 5635 5626
5729 5732 5734 5736 5737 5738 5739 5740 5741 5740 5740 5739 5740 5740 5740 5735 5733 5732 5730 5728 5725 5723 5720 5717 5714 5711 5708 5705 5701 5698 5693 5689 5684 5679 5674 5668 5662 5655 5649 5641 5633 5625 5617 5607
5721 5723 5725 5727 5728 5729 5729 5732 5732 5732 5731 5730 5729 5730 5730 5726 5724 5722 5720 5717 5715 5712 5709 5706 5703 5700 5697 5693 5690 5686 5681 5676 5671 5666 5660 5654 5647 5640 5633 5625 5616 5607 5598 5588
5712 5715 5716 5718 5719 5718 5720 5725 5723 5722 5722 5721 5720 5721 5718 5717 5714 5712 5709 5707 5704 5701 5698 5695 5692 5689 5686 5682 5678 5674 5669 5664 5658 5652 5646 5639 5632 5624 5616 5608 5598 5589 5579 5569
5704 5705 5706 5707 5709 5708 5714 5714 5714 5712 5712 5711 5710 5709 5707 5705 5703 5701 5699 5696 5693 5690 5687 5684 5681 5677 5674 5670 5666 5661 5656 5650 5644 5638 5631 5624 5616 5608 5599 5590 5580 5570 5560 5549
5694 5696 5696 5697 5696 5697 5702 5704 5703 5701 5702 5702 5699 5697 5695 5693 5691 5689 5687 5684 5681 5679 5676 5672 5669 5665 5661 5657 5653 5648 5642 5636 5630 5623 5615 5607 5599 5590 5581 5572 5562 5551 5541 5530
5683 5685 5687 5686 5686 5687 5692 5693 5691 5691 5691 5692 5688 5686 5684 5682 5680 5678 5675 5672 5670 5667 5664 5660 5657 5653 5649 5644 5640 5634 5628 5622 5615 5608 5600 5591 5582 5572 5563 5553 5542 5532 5520 5509
5673 5674 5675 5676 5674 5676 5680 5680 5679 5680 5680 5678 5676 5675 5673 5671 5669 5666 5663 5660 5658 5655 5652 5648 5644 5640 5636 5631 5626 5620 5614 5607 5599 5592 5583 5574 5564 5554 5544 5534 5523 5512 5501 5490
5662 5664 5665 5665 5664 5668 5669 5668 5668 5667 5666 5665 5663 5662 5661 5659 5656 5654 5651 5648 5645 5642 5639 5636 5631 5627 5622 5617 5611 5605 5599 5592 5584 5576 5567 5557 5547 5536 5526 5515 5504 5492 5480 5470
5651 5653 5654 5655 5657 5657 5657 5656 5655 5655 5654 5653 5651 5650 5648 5646 5644 5642 5639 5636 5633 5630 5626 5623 5618 5614 5608 5602 5596 5590 5583 5575 5567 5559 5549 5539 5529 5518 5507 5496 5485 5474 5461 5450
5639 5641 5642 5643 5645 5645 5644 5644 5643 5642 5642 5640 5639 5638 5636 5634 5631 5629 5627 5624 5621 5617 5613 5609 5605 5600 5594 5588 5581 5574 5566 5559 5550 5541 5532 5522 5512 5501 5490 5478 5466 5455 5443 5433
5628 5629 5630 5631 5633 5633 5633 5632 5632 5631 5630 5628 5627 5625 5623 5621 5619 5617 5614 5611 5608 5604 5600 5596 5591 5586 5580 5573 5566 5558 5550 5542 5533 5524 5514 5504 5493 5483 5472 5461 5449 5438 5427 5414
5617 5618 5619 5620 5621 5621 5621 5620 5619 5619 5617 5616 5615 5613 5611 5609 5607 5604 5601 5598 5595 5591 5587 5582 5577 5571 5565 5558 5550 5541 5533 5524 5515 5506 5496 5486 5475 5464 5454 5444 5435 5423 5412 5403